WB3DCA Weather Reports


time (UTC)temp
C
wind
direction
speed
KPH
gust
KPH
rain 1hr
cm
rain 24hr
cm
rain mn
cm
humidity
%
barometer
mb
20260507080052 8 0 0.0 6.4 0.03 0.64 0.03 88 1008.0
20260507075542 8 0 0.0 6.4 0.03 0.64 0.03 88 1008.0
20260507075043 8 0 0.0 6.4 0.03 0.64 0.03 88 1008.3
20260507074546 8 157 0.0 4.8 0.00 0.61 0.00 88 1008.3
20260507074041 8 188 0.0 3.2 0.00 0.61 0.00 87 1008.2
20260507073539 8 0 0.0 8.0 0.00 0.61 0.00 89 1008.1
20260507073055 8 0 1.6 8.0 0.00 0.61 0.00 89 1008.2
20260507072542 8 63 0.0 6.4 0.00 0.61 0.00 88 1007.9
20260507072045 8 57 0.0 3.2 0.00 0.61 0.00 89 1007.7
20260507071552 8 233 0.0 3.2 0.00 0.61 0.00 90 1007.9
20260507071041 8 0 0.0 4.8 0.00 0.61 0.00 90 1007.7
20260507070542 8 0 0.0 4.8 0.00 0.61 0.00 90 1007.8
20260507070057 8 205 0.0 6.4 0.00 0.61 0.00 90 1007.8
20260507065544 8 0 1.6 6.4 0.00 0.61 0.00 91 1008.0
20260507065041 8 55 0.0 6.4 0.00 0.61 0.00 90 1007.7
20260507064548 8 0 0.0 6.4 0.00 0.61 0.00 90 1007.7
20260507064042 8 217 0.0 6.4 0.00 0.61 0.00 90 1007.8
20260507063545 8 219 1.6 8.0 0.00 0.61 0.00 90 1007.9
20260507063051 8 195 0.0 8.0 0.00 0.61 0.00 90 1007.6
20260507062542 8 148 1.6 6.4 0.00 0.61 0.00 90 1007.3
20260507062040 8 0 0.0 6.4 0.00 0.61 0.00 91 1007.5
20260507061551 8 107 0.0 6.4 0.00 0.61 0.00 91 1007.3
20260507061040 8 314 1.6 6.4 0.00 0.61 0.00 91 1007.6
20260507060541 8 0 0.0 6.4 0.00 0.61 0.00 91 1007.4
20260507060058 8 0 1.6 12.9 0.00 0.61 0.00 91 1007.6
20260507055542 8 0 1.6 12.9 0.00 0.61 0.00 92 1007.8
20260507055041 9 0 0.0 6.4 0.00 0.61 0.00 92 1007.9
20260507054550 9 0 1.6 4.8 0.00 0.61 0.00 92 1007.9
20260507054041 9 0 1.6 4.8 0.00 0.61 0.00 92 1007.8
20260507053542 9 130 0.0 4.8 0.00 0.61 0.00 94 1007.8
20260507053054 9 290 0.0 4.8 0.00 0.61 0.00 94 1007.9
20260507052541 9 0 0.0 3.2 0.00 0.61 0.00 94 1007.9
20260507052042 9 0 0.0 3.2 0.00 0.61 0.00 94 1007.9
20260507051549 9 0 0.0 3.2 0.00 0.61 0.00 94 1007.8
20260507051042 9 252 0.0 3.2 0.00 0.61 0.00 94 1007.9
20260507050542 9 0 0.0 4.8 0.00 0.61 0.00 94 1007.7
20260507050050 9 0 1.6 9.7 0.00 0.61 0.00 94 1007.7
20260507045542 10 0 0.0 12.9 0.00 0.61 0.00 94 1007.5
20260507045042 10 196 1.6 12.9 0.00 0.61 0.00 93 1007.6
20260507044554 10 260 0.0 8.0 0.00 0.61 0.00 94 1007.5
20260507044041 10 292 1.6 8.0 0.00 0.61 0.00 94 1007.7
20260507043543 10 229 0.0 3.2 0.00 0.61 0.00 95 1007.8
20260507043051 10 0 0.0 3.2 0.00 0.61 0.00 95 1007.8
20260507042542 10 0 0.0 3.2 0.00 0.61 0.00 95 1007.8
20260507042044 10 0 0.0 4.8 0.00 0.61 0.00 94 1007.9
20260507041549 10 0 0.0 4.8 0.00 0.61 0.00 94 1008.0
20260507041041 10 180 1.6 4.8 0.00 0.61 0.00 94 1008.0
20260507040545 10 206 0.0 6.4 0.00 0.61 0.00 94 1007.9
20260507040050 10 0 1.6 6.4 0.00 0.61 0.00 94 1007.7
20260507035541 10 264 0.0 6.4 0.00 0.61 0.61 93 1007.4
20260507035042 10 0 1.6 6.4 0.00 0.61 0.61 94 1007.4
20260507034545 10 253 0.0 4.8 0.00 0.61 0.61 94 1007.4
20260507034041 11 281 0.0 16.1 0.00 0.61 0.61 93 1007.2
20260507033546 11 321 1.6 16.1 0.00 0.61 0.61 93 1007.1
20260507033044 11 336 1.6 8.0 0.00 0.61 0.61 93 1007.3
20260507032542 11 248 0.0 8.0 0.00 0.61 0.61 94 1007.3
20260507032041 12 40 1.6 8.0 0.00 0.61 0.61 94 1007.1
20260507031548 12 262 1.6 14.5 0.00 0.61 0.61 95 1007.2
20260507031039 12 351 3.2 14.5 0.00 0.61 0.61 95 1007.1
20260507030543 12 345 3.2 14.5 0.00 0.61 0.61 95 1007.0
20260507030054 13 0 1.6 6.4 0.00 0.61 0.61 95 1007.1
20260507025544 13 0 1.6 6.4 0.00 0.61 0.61 95 1007.1
20260507025041 13 65 0.0 4.8 0.00 0.61 0.61 96 1006.9
20260507024553 14 76 1.6 4.8 0.00 0.61 0.61 96 1006.7
20260507024041 14 229 0.0 4.8 0.00 0.61 0.61 97 1006.8
20260507023542 14 227 1.6 6.4 0.00 0.61 0.61 97 1006.8
20260507023048 14 0 0.0 6.4 0.00 0.61 0.61 97 1006.7
20260507022541 14 272 3.2 6.4 0.00 0.61 0.61 97 1006.5
20260507022042 14 252 3.2 6.4 0.00 0.61 0.61 97 1006.1
20260507021549 14 246 3.2 6.4 0.00 0.61 0.61 97 1006.1
20260507021041 14 260 3.2 6.4 0.00 0.61 0.61 97 1006.1
20260507020542 14 253 3.2 6.4 0.00 0.61 0.61 97 1006.1
20260507020050 14 249 3.2 6.4 0.00 0.61 0.61 97 1006.2
20260507015541 14 249 3.2 6.4 0.00 0.61 0.61 96 1006.1
20260507015041 14 246 3.2 6.4 0.00 0.61 0.61 96 1006.2
20260507014544 14 267 3.2 6.4 0.00 0.61 0.61 96 1006.1
20260507014042 14 261 3.2 8.0 0.00 0.61 0.61 96 1006.1
20260507013541 14 239 4.8 11.3 0.00 0.61 0.61 96 1006.1
20260507013055 14 238 4.8 11.3 0.00 0.61 0.61 96 1006.1
20260507012542 14 243 3.2 11.3 0.00 0.61 0.61 96 1006.1
20260507012042 14 248 4.8 11.3 0.00 0.61 0.61 96 1006.1
20260507011548 14 252 4.8 11.3 0.00 0.61 0.61 96 1006.1
20260507011042 14 234 4.8 11.3 0.00 0.61 0.61 96 1006.1
20260507010543 14 257 4.8 11.3 0.00 0.61 0.61 96 1006.0
20260507010050 14 248 4.8 8.0 0.00 0.61 0.61 96 1006.2
20260507005542 14 244 4.8 8.0 0.00 0.61 0.61 96 1006.1
20260507005043 14 260 4.8 11.3 0.00 0.61 0.61 96 1006.1
20260507004549 14 246 4.8 11.3 0.00 0.61 0.61 96 1006.0
20260507004041 14 238 4.8 11.3 0.00 0.61 0.61 96 1006.0
20260507003544 14 246 4.8 11.3 0.00 0.61 0.61 97 1005.8
20260507003056 14 232 4.8 11.3 0.00 0.61 0.61 97 1005.8
20260507002544 14 237 4.8 11.3 0.00 0.61 0.61 96 1005.9
20260507002042 14 248 4.8 11.3 0.00 0.61 0.61 96 1006.0
20260507001550 14 248 4.8 11.3 0.00 0.61 0.61 97 1005.9
20260507001041 14 254 6.4 11.3 0.00 0.61 0.61 96 1005.8
20260507000544 14 267 4.8 9.7 0.03 0.61 0.61 97 1005.9
20260507000054 14 243 4.8 11.3 0.03 0.61 0.61 96 1005.9
20260506235542 14 237 4.8 11.3 0.03 0.61 0.61 96 1005.7
20260506235045 14 242 4.8 12.9 0.03 0.61 0.61 96 1005.8
20260506234554 14 242 4.8 12.9 0.03 0.61 0.61 96 1005.8
20260506234043 14 246 4.8 12.9 0.03 0.61 0.61 96 1005.6
20260506233542 14 250 4.8 9.7 0.03 0.61 0.61 96 1005.6
20260506233100 14 244 4.8 11.3 0.03 0.61 0.61 96 1005.7
20260506232542 14 240 3.2 11.3 0.03 0.61 0.61 96 1005.8
20260506232040 14 248 4.8 9.7 0.03 0.61 0.61 96 1005.8
20260506231553 14 237 4.8 9.7 0.03 0.61 0.61 96 1005.7
20260506231041 14 233 4.8 11.3 0.03 0.61 0.61 96 1005.8
20260506230540 14 238 4.8 11.3 0.00 0.58 0.58 96 1005.8
20260506230049 14 242 4.8 11.3 0.00 0.58 0.58 96 1006.0
20260506225542 14 229 4.8 11.3 0.00 0.58 0.58 96 1006.0
20260506225042 14 241 4.8 12.9 0.00 0.58 0.58 96 1006.0
20260506224602 14 252 6.4 12.9 0.00 0.58 0.58 96 1006.0
20260506224043 14 231 6.4 11.3 0.00 0.58 0.58 96 1005.9
20260506223543 14 242 6.4 12.9 0.00 0.58 0.58 96 1006.0
20260506223052 14 233 4.8 12.9 0.03 0.58 0.58 96 1006.1
20260506222545 14 239 4.8 12.9 0.03 0.58 0.58 96 1006.2
20260506222043 14 239 3.2 8.0 0.05 0.58 0.58 96 1006.1
20260506221554 14 235 4.8 11.3 0.05 0.58 0.58 96 1006.1
20260506221043 14 245 3.2 11.3 0.08 0.58 0.58 96 1006.3
20260506220544 14 231 4.8 11.3 0.08 0.58 0.58 96 1006.2
20260506220051 15 257 3.2 11.3 0.10 0.58 0.58 96 1006.4
20260506215543 15 238 4.8 11.3 0.13 0.58 0.58 96 1006.4
20260506215043 15 242 4.8 8.0 0.15 0.58 0.58 96 1006.4
20260506214607 15 233 3.2 8.0 0.15 0.58 0.58 96 1006.4
20260506214044 15 239 3.2 11.3 0.18 0.58 0.58 95 1006.4
20260506213544 15 247 4.8 12.9 0.18 0.58 0.58 95 1006.4
20260506213050 15 230 6.4 12.9 0.15 0.56 0.56 95 1006.5
20260506212544 15 223 4.8 12.9 0.13 0.53 0.53 95 1006.5
20260506212043 15 216 4.8 11.3 0.13 0.53 0.53 95 1006.5
20260506211547 15 240 4.8 11.3 0.15 0.53 0.53 95 1006.6
20260506211043 15 233 4.8 11.3 0.13 0.51 0.51 95 1006.6
20260506210543 15 234 4.8 14.5 0.15 0.51 0.51 95 1006.6
20260506210054 15 242 4.8 14.5 0.13 0.48 0.48 95 1006.7
20260506205543 15 221 6.4 11.3 0.13 0.46 0.46 95 1006.7
20260506205043 15 248 3.2 12.9 0.10 0.43 0.43 95 1006.8
20260506204559 15 265 4.8 12.9 0.10 0.43 0.43 95 1006.8
20260506204041 15 247 4.8 11.3 0.08 0.41 0.41 95 1006.8
20260506203544 15 227 4.8 8.0 0.08 0.41 0.41 95 1006.8
20260506203052 15 233 3.2 8.0 0.08 0.41 0.41 94 1006.8
20260506202542 15 235 3.2 11.3 0.08 0.41 0.41 94 1006.8
20260506202042 15 232 6.4 12.9 0.08 0.41 0.41 94 1006.8
20260506201555 15 234 4.8 12.9 0.05 0.38 0.38 94 1006.8
20260506201041 15 241 4.8 9.7 0.05 0.38 0.38 94 1006.9
20260506200543 15 246 4.8 9.7 0.05 0.36 0.36 94 1007.0
20260506200051 16 224 4.8 8.0 0.05 0.36 0.36 94 1007.0
20260506195542 16 250 4.8 8.0 0.03 0.33 0.33 94 1007.0
20260506195044 16 255 3.2 6.4 0.05 0.33 0.33 94 1007.0
20260506194600 16 252 3.2 6.4 0.05 0.33 0.33 94 1007.0
20260506194050 16 241 3.2 4.8 0.08 0.33 0.33 94 1007.1
20260506193541 16 235 1.6 4.8 0.08 0.33 0.33 94 1006.9
20260506193100 16 223 3.2 4.8 0.08 0.33 0.33 94 1007.0
20260506192541 16 211 3.2 4.8 0.10 0.33 0.33 94 1007.1
20260506192044 16 240 1.6 4.8 0.13 0.33 0.33 94 1007.0
20260506191555 16 240 1.6 6.4 0.18 0.33 0.33 93 1006.8
20260506191044 16 240 1.6 6.4 0.20 0.33 0.33 93 1007.0
20260506190544 16 250 3.2 6.4 0.18 0.30 0.30 93 1007.3
20260506190053 16 0 0.0 4.8 0.20 0.30 0.30 93 1007.2
20260506185543 16 217 0.0 3.2 0.20 0.30 0.30 93 1007.3
20260506185040 16 0 0.0 3.2 0.18 0.28 0.28 92 1007.4
20260506184557 16 0 0.0 3.2 0.20 0.28 0.28 92 1007.5
20260506184042 16 217 1.6 3.2 0.20 0.25 0.25 92 1007.7
20260506183542 16 217 1.6 3.2 0.23 0.25 0.25 92 1007.6
20260506183100 16 0 0.0 3.2 0.23 0.23 0.23 92 1007.6
20260506182541 16 217 0.0 3.2 0.23 0.23 0.23 91 1007.9
20260506182041 16 0 0.0 0.0 0.20 0.20 0.20 91 1008.0
20260506181552 16 0 0.0 0.0 0.15 0.15 0.15 90 1007.9
20260506181042 16 0 0.0 0.0 0.13 0.13 0.13 90 1007.9
20260506180541 16 0 0.0 0.0 0.13 0.13 0.13 89 1007.8
20260506180055 16 0 0.0 1.6 0.10 0.10 0.10 89 1008.0
20260506175542 16 0 0.0 4.8 0.10 0.10 0.10 88 1008.0
20260506175044 17 0 1.6 9.7 0.10 0.10 0.10 86 1008.0
20260506174556 17 257 1.6 12.9 0.08 0.08 0.08 84 1008.2
20260506174041 18 252 4.8 12.9 0.05 0.05 0.05 80 1008.2
20260506173544 19 258 6.4 14.5 0.03 0.03 0.03 72 1007.9
20260506173059 21 255 6.4 14.5 0.00 0.00 0.00 64 1007.6
20260506172542 21 259 6.4 14.5 0.00 0.00 0.00 62 1007.5
20260506172041 21 243 6.4 17.7 0.00 0.00 0.00 60 1007.5
20260506171557 21 251 8.0 17.7 0.00 0.00 0.00 60 1007.7
20260506171042 22 238 8.0 17.7 0.00 0.00 0.00 60 1007.7
20260506170544 22 232 6.4 17.7 0.00 0.00 0.00 60 1007.8
20260506170059 22 266 11.3 17.7 0.00 0.00 0.00 60 1007.8
20260506165543 22 241 9.7 17.7 0.00 0.00 0.00 61 1007.9
20260506165043 22 250 8.0 16.1 0.00 0.00 0.00 60 1007.8
20260506164558 22 236 4.8 14.5 0.00 0.00 0.00 62 1007.9
20260506164042 21 259 6.4 14.5 0.00 0.00 0.00 63 1008.0
20260506163542 21 259 4.8 11.3 0.00 0.00 0.00 63 1008.1
20260506163203 21 261 4.8 11.3 0.00 0.00 0.00 65 1008.3
20260506162542 21 225 3.2 14.5 0.00 0.00 0.00 65 1008.4
20260506162045 21 211 4.8 17.7 0.00 0.00 0.00 65 1008.5
20260506161551 21 236 8.0 17.7 0.00 0.00 0.00 64 1008.6
20260506161043 21 203 6.4 16.1 0.00 0.00 0.00 65 1008.7
20260506160542 21 239 8.0 16.1 0.00 0.00 0.00 65 1008.7
20260506160052 20 230 6.4 16.1 0.00 0.00 0.00 65 1008.9
20260506155541 20 244 8.0 14.5 0.00 0.00 0.00 66 1009.0
20260506155043 20 227 8.0 14.5 0.00 0.00 0.00 66 1009.1
20260506154613 20 242 4.8 14.5 0.00 0.00 0.00 66 1009.1
20260506154043 20 254 6.4 14.5 0.00 0.00 0.00 65 1009.2
20260506153542 20 248 4.8 11.3 0.00 0.00 0.00 66 1009.1
20260506153050 20 245 3.2 11.3 0.00 0.00 0.00 66 1009.3
20260506152545 20 236 4.8 14.5 0.00 0.00 0.00 66 1009.3
20260506152043 20 241 8.0 16.1 0.00 0.00 0.00 66 1009.3
20260506151554 20 279 6.4 16.1 0.00 0.00 0.00 66 1009.4
20260506151042 20 252 9.7 16.1 0.00 0.00 0.00 65 1009.5
20260506150545 21 245 8.0 16.1 0.00 0.00 0.00 66 1009.4
20260506150053 20 244 4.8 12.9 0.00 0.00 0.00 66 1009.3
20260506145545 20 246 6.4 12.9 0.00 0.00 0.00 66 1009.3
20260506145040 20 246 4.8 12.9 0.00 0.00 0.00 67 1009.6
20260506144601 20 232 4.8 12.9 0.00 0.00 0.00 68 1009.4
20260506144041 20 266 4.8 11.3 0.00 0.00 0.00 68 1009.3
20260506143543 20 249 4.8 12.9 0.00 0.00 0.00 68 1009.2
20260506143049 20 228 4.8 16.1 0.00 0.00 0.00 69 1009.2
20260506142542 20 244 6.4 16.1 0.00 0.00 0.00 69 1009.2
20260506142042 20 230 4.8 14.5 0.00 0.00 0.00 70 1009.3
20260506141550 19 236 8.0 14.5 0.00 0.00 0.00 70 1009.3
20260506141043 19 257 8.0 12.9 0.00 0.00 0.00 70 1009.2
20260506140543 19 232 3.2 12.9 0.00 0.00 0.00 72 1009.1
20260506140058 19 233 4.8 12.9 0.00 0.00 0.00 71 1009.1
20260506135542 18 213 3.2 12.9 0.00 0.00 0.00 72 1009.3
20260506135042 18 258 4.8 9.7 0.00 0.00 0.00 73 1009.3
20260506134553 18 219 4.8 9.7 0.00 0.00 0.00 73 1009.4
20260506134042 18 232 6.4 11.3 0.00 0.00 0.00 74 1009.4
20260506133540 18 240 4.8 11.3 0.00 0.00 0.00 74 1009.4
20260506133052 18 249 4.8 12.9 0.00 0.00 0.00 74 1009.4
20260506132542 17 231 4.8 12.9 0.00 0.00 0.00 74 1009.6
20260506132044 17 233 6.4 12.9 0.00 0.00 0.00 74 1009.7
20260506131550 17 225 4.8 12.9 0.00 0.00 0.00 75 1009.7
20260506131042 17 236 3.2 12.9 0.00 0.00 0.00 74 1009.7
20260506130544 17 246 6.4 12.9 0.00 0.00 0.00 74 1009.6
20260506130051 17 261 4.8 11.3 0.00 0.00 0.00 74 1009.7
20260506125542 18 250 6.4 12.9 0.00 0.00 0.00 73 1009.6
20260506125042 18 246 6.4 12.9 0.00 0.00 0.00 74 1009.7
20260506124549 18 262 4.8 12.9 0.00 0.00 0.00 74 1009.8
20260506124042 17 242 4.8 12.9 0.00 0.00 0.00 75 1009.8
20260506123546 17 247 8.0 14.5 0.00 0.00 0.00 75 1009.6
20260506123047 17 238 4.8 14.5 0.00 0.00 0.00 75 1009.5
20260506122543 17 236 4.8 11.3 0.00 0.00 0.00 76 1009.5
20260506122042 17 244 3.2 12.9 0.00 0.00 0.00 76 1009.6
20260506121546 17 234 6.4 12.9 0.00 0.00 0.00 75 1009.8
20260506121042 17 259 4.8 14.5 0.00 0.00 0.00 75 1009.8
20260506120544 17 264 4.8 14.5 0.00 0.00 0.00 76 1009.9
20260506120050 17 248 6.4 14.5 0.00 0.00 0.00 76 1009.9
20260506115542 16 246 4.8 12.9 0.00 0.00 0.00 78 1009.8
20260506115042 16 233 6.4 12.9 0.00 0.00 0.00 78 1010.1
20260506114557 16 231 4.8 12.9 0.00 0.00 0.00 78 1010.2
20260506114042 16 244 6.4 12.9 0.00 0.00 0.00 78 1010.1
20260506113542 16 240 4.8 12.9 0.00 0.00 0.00 78 1010.1
20260506113053 16 250 4.8 12.9 0.00 0.00 0.00 78 1010.1
20260506112543 16 251 4.8 11.3 0.00 0.00 0.00 78 1010.3
20260506112042 16 228 4.8 11.3 0.00 0.00 0.00 78 1010.3
20260506111545 16 238 4.8 9.7 0.00 0.00 0.00 78 1010.3
20260506111046 16 238 4.8 9.7 0.00 0.00 0.00 79 1010.3
20260506110542 15 241 4.8 9.7 0.00 0.00 0.00 79 1010.4
20260506110047 15 220 3.2 9.7 0.00 0.00 0.00 79 1010.3
20260506105542 15 228 4.8 9.7 0.00 0.00 0.00 79 1010.2
20260506105041 15 244 4.8 8.0 0.00 0.00 0.00 79 1010.3
20260506104556 15 236 4.8 8.0 0.00 0.00 0.00 79 1010.4
20260506104044 15 240 3.2 8.0 0.00 0.00 0.00 79 1010.5
20260506103542 15 227 4.8 11.3 0.00 0.00 0.00 79 1010.3
20260506103054 15 241 4.8 11.3 0.00 0.00 0.00 79 1010.3
20260506102542 15 257 3.2 9.7 0.00 0.00 0.00 79 1010.2
20260506102043 15 229 3.2 9.7 0.00 0.00 0.00 79 1010.2
20260506101551 15 241 1.6 9.7 0.00 0.00 0.00 79 1010.3
20260506101042 15 238 4.8 9.7 0.00 0.00 0.00 79 1010.3
20260506100542 15 242 3.2 9.7 0.00 0.00 0.00 79 1010.2
20260506100046 15 250 3.2 9.7 0.00 0.00 0.00 79 1010.4
20260506095542 15 253 4.8 12.9 0.00 0.00 0.00 79 1010.3
20260506095045 15 244 3.2 12.9 0.00 0.00 0.00 79 1010.3
20260506094551 15 245 3.2 12.9 0.00 0.00 0.00 79 1010.1
20260506094042 15 244 3.2 6.4 0.00 0.00 0.00 78 1010.1
20260506093543 15 256 1.6 6.4 0.00 0.00 0.00 78 1010.0
20260506093049 15 244 3.2 8.0 0.00 0.00 0.00 78 1010.0
20260506092542 15 217 3.2 8.0 0.00 0.00 0.00 78 1010.2
20260506092043 15 247 3.2 6.4 0.00 0.00 0.00 78 1010.3
20260506091550 15 250 3.2 6.4 0.00 0.00 0.00 77 1010.1
20260506091044 15 244 3.2 6.4 0.00 0.00 0.00 77 1010.1
20260506090543 15 242 3.2 11.3 0.00 0.00 0.00 77 1010.0
20260506090047 15 256 3.2 11.3 0.00 0.00 0.00 77 1010.0
20260506085542 15 241 4.8 11.3 0.00 0.00 0.00 77 1010.0
20260506085042 15 253 3.2 6.4 0.00 0.00 0.00 76 1010.1
20260506084553 15 259 3.2 8.0 0.00 0.00 0.00 76 1010.1
20260506084043 16 247 4.8 9.7 0.00 0.00 0.00 75 1010.1
20260506083542 16 242 4.8 9.7 0.00 0.00 0.00 75 1010.2
20260506083051 16 236 4.8 11.3 0.00 0.00 0.00 75 1010.2
20260506082542 16 248 3.2 11.3 0.00 0.00 0.00 74 1010.1
20260506082042 16 250 4.8 11.3 0.00 0.00 0.00 74 1010.1
20260506081554 16 276 3.2 11.3 0.00 0.00 0.00 74 1010.0
20260506081042 16 244 3.2 8.0 0.00 0.00 0.00 74 1010.1
20260506080542 16 242 4.8 11.3 0.00 0.00 0.00 74 1010.0